Tracking 32954 objects as of 18-Jan-2026
HD Live streaming from Space Station
objects crossing your sky now

ONEWEB-0152

Track ONEWEB-0152 now!
10-day predictions
ONEWEB-0152 is classified as:


NORAD ID: 48043
Int'l Code: 2021-025B
Perigee: 1,215.5 km
Apogee: 1,218.3 km
Inclination: 87.9 °
Period: 109.6 minutes
Semi major axis: 7587 km
RCS: Unknown
Launch date: March 25, 2021
Source: United States (US)
Launch site: VOSTOCHNY COSMODROME (VOSTO)
Your satellite tracking list
Your tracking list is empty




NASA's NSSDC Master Catalog

Two Line Element Set (TLE):
1 48043U 21025B   26017.89087381  .00000115  00000-0  28066-3 0  9991
2 48043  87.9006 350.0891 0001809  78.7578 281.3755 13.13470387233823
Source of the keplerian elements: AFSPC